Tracking 19164 objects as of 21-May-2018
HD Live streaming from Space Station
objects crossing your sky now

PALAPA 2

Track PALAPA 2 now!
PALAPA 2 is classified as:


NORAD ID: 9862
Int'l Code: 1977-018A
Perigee: 35,838.0 km
Apogee: 35,882.3 km
Inclination: 13.9 °
Period: 1,439.5 minutes
Semi major axis: 42231 km
RCS: 5.6864 m2 (large)
Launch date: March 10, 1977
Source: Indonesia (INDO)
Launch site: AIR FORCE EASTERN TEST RANGE (AFETR)
aabbcc
Your satellite tracking list
Your tracking list is empty




NASA's NSSDC Master Catalog

Two Line Element Set (TLE):
1 09862U 77018A   18141.46654469 -.00000267  00000-0  00000+0 0  9992
2 09862  13.8504 336.9427 0005242  16.6501 340.3313  1.00035414113587
Source of the keplerian elements: AFSPC